| time (UTC) | temp F | wind direction | speed MPH | gust MPH | rain 1hr in | rain 24hr in | rain mn in | humidity % | barometer mb |
| 20260507165552 | 57 | 90 | 0.0 | 7.0 | 0.00 | 0.02 | 0.00 | 52 | 1034.3 |
| 20260507165054 | 57 | 79 | 1.0 | 7.0 | 0.00 | 0.02 | 0.00 | 48 | 1034.3 |
| 20260507164552 | 57 | 59 | 1.0 | 7.0 | 0.00 | 0.02 | 0.00 | 48 | 1034.5 |
| 20260507164052 | 57 | 86 | 2.0 | 7.0 | 0.00 | 0.02 | 0.00 | 48 | 1034.4 |
| 20260507163552 | 57 | 121 | 0.0 | 4.0 | 0.00 | 0.02 | 0.00 | 49 | 1034.6 |
| 20260507163051 | 56 | 25 | 0.0 | 5.0 | 0.00 | 0.02 | 0.00 | 49 | 1034.7 |
| 20260507162552 | 57 | 73 | 1.0 | 7.0 | 0.00 | 0.02 | 0.00 | 53 | 1034.9 |
| 20260507162051 | 57 | 32 | 2.0 | 7.0 | 0.00 | 0.02 | 0.00 | 48 | 1034.8 |
| 20260507161550 | 58 | 79 | 0.0 | 9.0 | 0.00 | 0.02 | 0.00 | 48 | 1034.8 |
| 20260507161050 | 59 | 86 | 2.0 | 9.0 | 0.00 | 0.02 | 0.00 | 49 | 1034.9 |
| 20260507160550 | 58 | 99 | 2.0 | 8.0 | 0.00 | 0.02 | 0.00 | 49 | 1035.0 |
| 20260507160053 | 58 | 81 | 1.0 | 7.0 | 0.00 | 0.02 | 0.00 | 50 | 1034.9 |
| 20260507155549 | 58 | 146 | 0.0 | 7.0 | 0.00 | 0.07 | 0.00 | 45 | 1035.3 |
| 20260507155049 | 58 | 77 | 1.0 | 7.0 | 0.00 | 0.07 | 0.00 | 51 | 1035.3 |
| 20260507154549 | 58 | 76 | 2.0 | 7.0 | 0.00 | 0.07 | 0.00 | 50 | 1035.4 |
| 20260507154049 | 58 | 217 | 0.0 | 8.0 | 0.00 | 0.07 | 0.00 | 47 | 1035.4 |
| 20260507153548 | 58 | 88 | 2.0 | 9.0 | 0.00 | 0.07 | 0.00 | 48 | 1035.4 |
| 20260507153048 | 59 | 61 | 1.0 | 9.0 | 0.00 | 0.07 | 0.00 | 48 | 1035.5 |
| 20260507152548 | 59 | 308 | 0.0 | 5.0 | 0.00 | 0.07 | 0.00 | 57 | 1035.6 |
| 20260507152048 | 58 | 90 | 0.0 | 3.0 | 0.00 | 0.07 | 0.00 | 54 | 1035.7 |
| 20260507151546 | 58 | 246 | 0.0 | 7.0 | 0.00 | 0.07 | 0.00 | 54 | 1035.7 |
| 20260507151043 | 57 | 153 | 0.0 | 10.0 | 0.00 | 0.07 | 0.00 | 52 | 1035.8 |
| 20260507150544 | 56 | 82 | 2.0 | 10.0 | 0.00 | 0.07 | 0.00 | 53 | 1035.9 |
| 20260507150043 | 56 | 78 | 1.0 | 8.0 | 0.00 | 0.07 | 0.00 | 52 | 1035.9 |
| 20260507145543 | 56 | 79 | 1.0 | 8.0 | 0.00 | 0.14 | 0.00 | 51 | 1036.1 |
| 20260507145041 | 56 | 78 | 0.0 | 7.0 | 0.00 | 0.14 | 0.00 | 54 | 1036.1 |
| 20260507144608 | 56 | 72 | 3.0 | 7.0 | 0.00 | 0.14 | 0.00 | 51 | 1036.1 |
| 20260507144041 | 55 | 86 | 1.0 | 6.0 | 0.00 | 0.14 | 0.00 | 53 | 1036.1 |
| 20260507143541 | 55 | 89 | 2.0 | 7.0 | 0.00 | 0.14 | 0.00 | 51 | 1036.1 |
| 20260507143042 | 56 | 85 | 1.0 | 8.0 | 0.00 | 0.14 | 0.00 | 50 | 1036.1 |
| 20260507142541 | 56 | 79 | 3.0 | 8.0 | 0.00 | 0.14 | 0.00 | 50 | 1036.2 |
| 20260507142040 | 55 | 79 | 0.0 | 6.0 | 0.00 | 0.14 | 0.00 | 57 | 1036.3 |
| 20260507141543 | 55 | 79 | 2.0 | 6.0 | 0.00 | 0.14 | 0.00 | 48 | 1036.2 |
| 20260507141039 | 54 | 81 | 0.0 | 7.0 | 0.00 | 0.14 | 0.00 | 54 | 1036.1 |
| 20260507140539 | 55 | 86 | 3.0 | 7.0 | 0.00 | 0.14 | 0.00 | 51 | 1036.2 |
| 20260507140039 | 54 | 79 | 1.0 | 7.0 | 0.00 | 0.14 | 0.00 | 51 | 1036.2 |
| 20260507135540 | 54 | 103 | 1.0 | 6.0 | 0.00 | 0.21 | 0.00 | 55 | 1036.2 |
| 20260507135040 | 54 | 82 | 2.0 | 7.0 | 0.00 | 0.21 | 0.00 | 53 | 1036.3 |
| 20260507134542 | 54 | 74 | 0.0 | 7.0 | 0.00 | 0.21 | 0.00 | 53 | 1036.4 |
| 20260507134037 | 54 | 72 | 1.0 | 6.0 | 0.00 | 0.21 | 0.00 | 54 | 1036.5 |
| 20260507133537 | 54 | 77 | 0.0 | 8.0 | 0.00 | 0.21 | 0.00 | 54 | 1036.5 |
| 20260507133038 | 53 | 84 | 1.0 | 8.0 | 0.00 | 0.21 | 0.00 | 55 | 1036.5 |
| 20260507132536 | 53 | 73 | 1.0 | 5.0 | 0.00 | 0.21 | 0.00 | 56 | 1036.7 |
| 20260507132036 | 53 | 60 | 2.0 | 7.0 | 0.00 | 0.21 | 0.00 | 56 | 1036.5 |
| 20260507131536 | 54 | 75 | 2.0 | 7.0 | 0.00 | 0.21 | 0.00 | 58 | 1036.6 |
| 20260507131037 | 55 | 60 | 0.0 | 1.0 | 0.00 | 0.21 | 0.00 | 63 | 1036.5 |
| 20260507130534 | 53 | 132 | 0.0 | 1.0 | 0.00 | 0.21 | 0.00 | 67 | 1036.5 |
| 20260507130030 | 52 | 67 | 0.0 | 0.0 | 0.00 | 0.21 | 0.00 | 68 | 1036.6 |
| 20260507125530 | 52 | 236 | 0.0 | 0.0 | 0.00 | 0.28 | 0.00 | 69 | 1036.6 |
| 20260507125033 | 52 | 75 | 0.0 | 3.0 | 0.00 | 0.28 | 0.00 | 68 | 1036.6 |
| 20260507124529 | 51 | 79 | 0.0 | 3.0 | 0.00 | 0.28 | 0.00 | 70 | 1036.6 |
| 20260507124033 | 51 | 90 | 0.0 | 1.0 | 0.00 | 0.28 | 0.00 | 71 | 1036.6 |
| 20260507123529 | 52 | 79 | 0.0 | 0.0 | 0.00 | 0.28 | 0.00 | 68 | 1036.6 |
| 20260507123029 | 52 | 160 | 0.0 | 1.0 | 0.00 | 0.28 | 0.00 | 70 | 1036.5 |
| 20260507122528 | 52 | 271 | 0.0 | 1.0 | 0.00 | 0.28 | 0.00 | 69 | 1036.5 |
| 20260507122027 | 52 | 146 | 0.0 | 0.0 | 0.00 | 0.28 | 0.00 | 69 | 1036.4 |
| 20260507121526 | 52 | 71 | 0.0 | 0.0 | 0.00 | 0.28 | 0.00 | 70 | 1036.4 |
| 20260507121025 | 51 | 63 | 0.0 | 2.0 | 0.00 | 0.28 | 0.00 | 71 | 1036.4 |
| 20260507120524 | 51 | 259 | 0.0 | 2.0 | 0.00 | 0.28 | 0.00 | 72 | 1036.4 |
| 20260507120024 | 51 | 91 | 0.0 | 3.0 | 0.00 | 0.28 | 0.00 | 71 | 1036.2 |
| 20260507115523 | 50 | 74 | 0.0 | 3.0 | 0.00 | 0.28 | 0.00 | 73 | 1036.3 |
| 20260507115022 | 50 | 86 | 0.0 | 1.0 | 0.00 | 0.28 | 0.00 | 75 | 1036.3 |
| 20260507114521 | 50 | 86 | 0.0 | 2.0 | 0.00 | 0.28 | 0.00 | 74 | 1036.2 |
| 20260507114021 | 50 | 85 | 0.0 | 2.0 | 0.00 | 0.28 | 0.00 | 74 | 1036.1 |
| 20260507113520 | 50 | 86 | 0.0 | 2.0 | 0.00 | 0.28 | 0.00 | 75 | 1036.0 |
| 20260507113020 | 49 | 86 | 0.0 | 2.0 | 0.00 | 0.28 | 0.00 | 74 | 1036.1 |
| 20260507112522 | 49 | 79 | 0.0 | 2.0 | 0.00 | 0.28 | 0.00 | 76 | 1036.1 |
| 20260507112021 | 48 | 75 | 0.0 | 2.0 | 0.00 | 0.28 | 0.00 | 76 | 1036.2 |
| 20260507111530 | 48 | 96 | 0.0 | 2.0 | 0.00 | 0.28 | 0.00 | 76 | 1036.1 |
| 20260507111017 | 49 | 75 | 0.0 | 2.0 | 0.00 | 0.28 | 0.00 | 77 | 1036.0 |
| 20260507110517 | 48 | 91 | 0.0 | 0.0 | 0.00 | 0.28 | 0.00 | 79 | 1035.9 |
| 20260507110017 | 47 | 91 | 0.0 | 0.0 | 0.00 | 0.28 | 0.00 | 80 | 1036.0 |
| 20260507105516 | 46 | 91 | 0.0 | 0.0 | 0.00 | 0.28 | 0.00 | 82 | 1036.0 |
| 20260507105016 | 46 | 91 | 0.0 | 0.0 | 0.00 | 0.28 | 0.00 | 81 | 1035.9 |
| 20260507104519 | 45 | 91 | 0.0 | 0.0 | 0.00 | 0.28 | 0.00 | 83 | 1035.8 |
| 20260507104015 | 43 | 91 | 0.0 | 0.0 | 0.00 | 0.28 | 0.00 | 84 | 1035.8 |
| 20260507103514 | 43 | 91 | 0.0 | 0.0 | 0.00 | 0.28 | 0.00 | 84 | 1035.8 |
| 20260507103014 | 43 | 91 | 0.0 | 0.0 | 0.00 | 0.28 | 0.00 | 84 | 1035.7 |
| 20260507102513 | 43 | 91 | 0.0 | 1.0 | 0.00 | 0.28 | 0.00 | 83 | 1035.8 |
| 20260507102013 | 43 | 85 | 0.0 | 1.0 | 0.00 | 0.28 | 0.00 | 83 | 1035.7 |
| 20260507101511 | 43 | 86 | 0.0 | 2.0 | 0.00 | 0.28 | 0.00 | 82 | 1035.5 |
| 20260507101010 | 43 | 86 | 0.0 | 2.0 | 0.00 | 0.28 | 0.00 | 82 | 1035.5 |
| 20260507100508 | 44 | 88 | 0.0 | 2.0 | 0.00 | 0.28 | 0.00 | 81 | 1035.5 |
| 20260507100011 | 44 | 88 | 0.0 | 2.0 | 0.00 | 0.28 | 0.00 | 81 | 1035.5 |
| 20260507095508 | 44 | 252 | 0.0 | 3.0 | 0.00 | 0.28 | 0.00 | 80 | 1035.4 |
| 20260507095011 | 45 | 76 | 0.0 | 7.0 | 0.00 | 0.28 | 0.00 | 80 | 1035.4 |
| 20260507094506 | 45 | 68 | 2.0 | 7.0 | 0.00 | 0.28 | 0.00 | 80 | 1035.2 |
| 20260507094005 | 45 | 63 | 0.0 | 4.0 | 0.00 | 0.28 | 0.00 | 80 | 1035.1 |
| 20260507093505 | 45 | 81 | 1.0 | 4.0 | 0.00 | 0.28 | 0.00 | 79 | 1035.1 |
| 20260507093005 | 45 | 80 | 0.0 | 5.0 | 0.00 | 0.28 | 0.00 | 80 | 1035.1 |
| 20260507092503 | 45 | 83 | 0.0 | 5.0 | 0.00 | 0.28 | 0.00 | 79 | 1035.1 |
| 20260507092001 | 46 | 79 | 0.0 | 5.0 | 0.00 | 0.28 | 0.00 | 80 | 1034.9 |
| 20260507091501 | 46 | 79 | 1.0 | 6.0 | 0.00 | 0.28 | 0.00 | 80 | 1034.8 |
| 20260507091101 | 46 | 77 | 0.0 | 6.0 | 0.00 | 0.28 | 0.00 | 80 | 1034.9 |
| 20260507090559 | 46 | 110 | 0.0 | 6.0 | 0.00 | 0.28 | 0.00 | 81 | 1035.1 |
| 20260507090059 | 46 | 88 | 0.0 | 3.0 | 0.00 | 0.28 | 0.00 | 81 | 1035.1 |
| 20260507085559 | 47 | 102 | 0.0 | 3.0 | 0.00 | 0.28 | 0.00 | 81 | 1035.0 |
| 20260507085059 | 47 | 91 | 0.0 | 4.0 | 0.00 | 0.28 | 0.00 | 82 | 1035.0 |
| 20260507084559 | 47 | 81 | 0.0 | 4.0 | 0.00 | 0.28 | 0.00 | 83 | 1034.7 |
| 20260507084059 | 47 | 77 | 0.0 | 4.0 | 0.00 | 0.28 | 0.00 | 83 | 1034.7 |
| 20260507083558 | 47 | 83 | 0.0 | 3.0 | 0.00 | 0.28 | 0.00 | 85 | 1034.7 |
| 20260507083059 | 47 | 67 | 0.0 | 3.0 | 0.00 | 0.28 | 0.00 | 85 | 1034.6 |
| 20260507082558 | 46 | 93 | 0.0 | 3.0 | 0.00 | 0.28 | 0.00 | 86 | 1034.7 |
| 20260507082057 | 46 | 83 | 0.0 | 1.0 | 0.00 | 0.28 | 0.00 | 87 | 1034.8 |
| 20260507081558 | 46 | 83 | 0.0 | 0.0 | 0.00 | 0.28 | 0.00 | 87 | 1034.8 |
| 20260507081058 | 46 | 83 | 0.0 | 0.0 | 0.00 | 0.28 | 0.00 | 87 | 1034.8 |
| 20260507080558 | 46 | 83 | 0.0 | 0.0 | 0.00 | 0.28 | 0.00 | 87 | 1034.7 |
| 20260507080059 | 46 | 83 | 0.0 | 1.0 | 0.00 | 0.28 | 0.00 | 86 | 1034.7 |
| 20260507075556 | 46 | 83 | 0.0 | 1.0 | 0.00 | 0.28 | 0.00 | 86 | 1034.7 |
| 20260507075056 | 46 | 83 | 0.0 | 1.0 | 0.00 | 0.28 | 0.00 | 86 | 1034.7 |
| 20260507074556 | 46 | 83 | 0.0 | 0.0 | 0.00 | 0.28 | 0.00 | 84 | 1034.6 |
| 20260507074054 | 46 | 83 | 0.0 | 0.0 | 0.00 | 0.28 | 0.00 | 84 | 1034.9 |
| 20260507073554 | 47 | 83 | 0.0 | 1.0 | 0.00 | 0.28 | 0.00 | 83 | 1034.8 |
| 20260507073058 | 47 | 83 | 0.0 | 1.0 | 0.00 | 0.28 | 0.00 | 82 | 1034.7 |
| 20260507072552 | 48 | 84 | 0.0 | 6.0 | 0.00 | 0.28 | 0.00 | 82 | 1034.9 |
| 20260507072051 | 48 | 84 | 1.0 | 6.0 | 0.00 | 0.28 | 0.00 | 82 | 1034.9 |
| 20260507071553 | 48 | 83 | 0.0 | 1.0 | 0.00 | 0.28 | 0.00 | 82 | 1035.1 |
| 20260507071049 | 49 | 83 | 0.0 | 6.0 | 0.00 | 0.28 | 0.00 | 82 | 1034.9 |
| 20260507070548 | 49 | 84 | 0.0 | 6.0 | 0.00 | 0.28 | 0.00 | 81 | 1034.8 |
| 20260507070051 | 49 | 95 | 0.0 | 5.0 | 0.00 | 0.28 | 0.00 | 81 | 1034.9 |
| 20260507065549 | 49 | 86 | 0.0 | 3.0 | 0.00 | 0.28 | 0.00 | 81 | 1034.9 |
| 20260507065046 | 49 | 85 | 0.0 | 5.0 | 0.00 | 0.28 | 0.00 | 80 | 1035.0 |
| 20260507064548 | 49 | 89 | 0.0 | 7.0 | 0.00 | 0.28 | 0.00 | 81 | 1035.0 |
| 20260507064046 | 49 | 84 | 1.0 | 7.0 | 0.00 | 0.28 | 0.00 | 81 | 1034.9 |
| 20260507063550 | 49 | 82 | 1.0 | 5.0 | 0.00 | 0.28 | 0.00 | 82 | 1034.9 |
| 20260507063049 | 49 | 93 | 0.0 | 7.0 | 0.00 | 0.28 | 0.00 | 83 | 1035.1 |
| 20260507062545 | 50 | 58 | 1.0 | 7.0 | 0.00 | 0.28 | 0.00 | 83 | 1035.1 |
| 20260507062044 | 49 | 111 | 2.0 | 8.0 | 0.00 | 0.28 | 0.00 | 84 | 1035.1 |
| 20260507061544 | 49 | 106 | 1.0 | 8.0 | 0.00 | 0.28 | 0.00 | 85 | 1034.9 |
| 20260507061042 | 50 | 80 | 0.0 | 6.0 | 0.00 | 0.28 | 0.00 | 87 | 1034.9 |
| 20260507060541 | 50 | 96 | 0.0 | 2.0 | 0.00 | 0.28 | 0.00 | 87 | 1034.7 |
| 20260507060051 | 50 | 91 | 0.0 | 2.0 | 0.00 | 0.28 | 0.00 | 87 | 1034.7 |
| 20260507055541 | 50 | 96 | 0.0 | 5.0 | 0.00 | 0.28 | 0.00 | 87 | 1034.7 |
| 20260507055041 | 49 | 82 | 0.0 | 5.0 | 0.00 | 0.28 | 0.00 | 87 | 1034.5 |
| 20260507054547 | 49 | 97 | 0.0 | 3.0 | 0.00 | 0.28 | 0.00 | 87 | 1034.4 |
| 20260507054039 | 49 | 102 | 0.0 | 2.0 | 0.00 | 0.28 | 0.00 | 88 | 1034.5 |
| 20260507053539 | 49 | 80 | 0.0 | 1.0 | 0.00 | 0.28 | 0.00 | 88 | 1034.6 |
| 20260507053042 | 49 | 79 | 0.0 | 0.0 | 0.00 | 0.28 | 0.00 | 88 | 1034.7 |
| 20260507052538 | 49 | 78 | 0.0 | 0.0 | 0.00 | 0.28 | 0.00 | 88 | 1034.6 |
| 20260507052038 | 49 | 78 | 0.0 | 0.0 | 0.00 | 0.28 | 0.00 | 88 | 1034.5 |
| 20260507051539 | 49 | 79 | 0.0 | 0.0 | 0.00 | 0.28 | 0.00 | 88 | 1034.3 |
| 20260507051041 | 49 | 78 | 0.0 | 0.0 | 0.00 | 0.28 | 0.00 | 88 | 1034.4 |
| 20260507050539 | 49 | 78 | 0.0 | 0.0 | 0.00 | 0.28 | 0.00 | 88 | 1034.4 |
| 20260507050038 | 49 | 78 | 0.0 | 0.0 | 0.00 | 0.28 | 0.00 | 88 | 1034.2 |
| 20260507045541 | 49 | 79 | 0.0 | 0.0 | 0.00 | 0.28 | 0.00 | 88 | 1034.6 |
| 20260507045037 | 49 | 78 | 0.0 | 0.0 | 0.00 | 0.28 | 0.00 | 88 | 1034.6 |
| 20260507044549 | 49 | 78 | 0.0 | 0.0 | 0.00 | 0.28 | 0.00 | 88 | 1034.4 |
| 20260507044036 | 50 | 78 | 0.0 | 0.0 | 0.00 | 0.28 | 0.00 | 88 | 1034.1 |
| 20260507043535 | 50 | 78 | 0.0 | 0.0 | 0.00 | 0.28 | 0.00 | 88 | 1034.2 |
| 20260507043034 | 50 | 78 | 0.0 | 0.0 | 0.00 | 0.28 | 0.00 | 88 | 1034.3 |
| 20260507042533 | 50 | 78 | 0.0 | 0.0 | 0.00 | 0.28 | 0.00 | 88 | 1034.4 |
| 20260507042031 | 50 | 78 | 0.0 | 0.0 | 0.00 | 0.28 | 0.00 | 89 | 1034.3 |
| 20260507041530 | 49 | 78 | 0.0 | 0.0 | 0.00 | 0.28 | 0.00 | 88 | 1034.4 |
| 20260507041030 | 49 | 78 | 0.0 | 0.0 | 0.00 | 0.28 | 0.00 | 88 | 1034.1 |
| 20260507040530 | 49 | 78 | 0.0 | 0.0 | 0.00 | 0.28 | 0.00 | 89 | 1034.0 |
| 20260507040033 | 49 | 78 | 0.0 | 0.0 | 0.00 | 0.28 | 0.00 | 89 | 1034.3 |
| 20260507035528 | 50 | 78 | 0.0 | 0.0 | 0.00 | 0.28 | 0.28 | 89 | 1034.0 |
| 20260507035029 | 50 | 78 | 0.0 | 0.0 | 0.00 | 0.28 | 0.28 | 89 | 1034.1 |
| 20260507034531 | 50 | 78 | 0.0 | 0.0 | 0.00 | 0.28 | 0.28 | 89 | 1034.2 |
| 20260507034028 | 50 | 78 | 0.0 | 0.0 | 0.00 | 0.28 | 0.28 | 89 | 1034.3 |
| 20260507033527 | 50 | 78 | 0.0 | 0.0 | 0.00 | 0.28 | 0.28 | 89 | 1034.4 |
| 20260507033027 | 50 | 78 | 0.0 | 0.0 | 0.00 | 0.28 | 0.28 | 89 | 1034.5 |
| 20260507032525 | 50 | 78 | 0.0 | 0.0 | 0.00 | 0.28 | 0.28 | 89 | 1034.5 |
| 20260507032028 | 50 | 78 | 0.0 | 0.0 | 0.00 | 0.28 | 0.28 | 89 | 1034.6 |
| 20260507031525 | 50 | 78 | 0.0 | 0.0 | 0.00 | 0.28 | 0.28 | 89 | 1034.1 |
| 20260507031025 | 51 | 78 | 0.0 | 0.0 | 0.00 | 0.28 | 0.28 | 89 | 1033.9 |
| 20260507030525 | 51 | 78 | 0.0 | 0.0 | 0.00 | 0.28 | 0.28 | 88 | 1034.1 |
| 20260507030023 | 51 | 78 | 0.0 | 0.0 | 0.00 | 0.28 | 0.28 | 88 | 1034.0 |
| 20260507025522 | 51 | 78 | 0.0 | 0.0 | 0.00 | 0.28 | 0.28 | 88 | 1033.8 |
| 20260507025022 | 51 | 78 | 0.0 | 0.0 | 0.00 | 0.28 | 0.28 | 88 | 1034.0 |
| 20260507024522 | 51 | 78 | 0.0 | 0.0 | 0.00 | 0.28 | 0.28 | 88 | 1034.0 |
| 20260507024021 | 51 | 78 | 0.0 | 0.0 | 0.00 | 0.28 | 0.28 | 88 | 1033.9 |
| 20260507023525 | 51 | 78 | 0.0 | 0.0 | 0.00 | 0.28 | 0.28 | 88 | 1034.2 |
| 20260507023022 | 51 | 78 | 0.0 | 0.0 | 0.00 | 0.28 | 0.28 | 88 | 1034.1 |
| 20260507022520 | 51 | 78 | 0.0 | 0.0 | 0.00 | 0.28 | 0.28 | 88 | 1034.0 |
| 20260507022020 | 51 | 78 | 0.0 | 0.0 | 0.00 | 0.28 | 0.28 | 88 | 1034.3 |
| 20260507021522 | 51 | 78 | 0.0 | 0.0 | 0.00 | 0.28 | 0.28 | 88 | 1034.7 |
| 20260507021023 | 51 | 78 | 0.0 | 0.0 | 0.00 | 0.28 | 0.28 | 87 | 1034.7 |
| 20260507020518 | 51 | 78 | 0.0 | 0.0 | 0.00 | 0.28 | 0.28 | 87 | 1034.8 |
| 20260507020021 | 52 | 78 | 0.0 | 1.0 | 0.00 | 0.28 | 0.28 | 87 | 1034.7 |
| 20260507015522 | 52 | 78 | 0.0 | 1.0 | 0.00 | 0.28 | 0.28 | 87 | 1034.7 |
| 20260507015017 | 52 | 78 | 0.0 | 0.0 | 0.00 | 0.28 | 0.28 | 87 | 1034.6 |
| 20260507014517 | 52 | 78 | 0.0 | 1.0 | 0.00 | 0.28 | 0.28 | 87 | 1034.7 |
| 20260507014021 | 52 | 78 | 0.0 | 2.0 | 0.00 | 0.28 | 0.28 | 87 | 1034.6 |
| 20260507013517 | 52 | 78 | 0.0 | 3.0 | 0.00 | 0.28 | 0.28 | 87 | 1034.8 |
| 20260507013016 | 52 | 79 | 0.0 | 3.0 | 0.00 | 0.28 | 0.28 | 87 | 1034.6 |
| 20260507012516 | 52 | 73 | 0.0 | 3.0 | 0.00 | 0.28 | 0.28 | 87 | 1034.6 |
| 20260507012015 | 52 | 76 | 0.0 | 2.0 | 0.00 | 0.28 | 0.28 | 87 | 1034.7 |
| 20260507011515 | 52 | 77 | 0.0 | 0.0 | 0.00 | 0.28 | 0.28 | 87 | 1034.7 |
| 20260507011014 | 52 | 77 | 0.0 | 0.0 | 0.00 | 0.28 | 0.28 | 87 | 1034.7 |
| 20260507010513 | 52 | 77 | 0.0 | 0.0 | 0.00 | 0.28 | 0.28 | 87 | 1034.4 |
| 20260507010012 | 52 | 77 | 0.0 | 0.0 | 0.00 | 0.28 | 0.28 | 87 | 1034.3 |
| 20260507005512 | 52 | 77 | 0.0 | 1.0 | 0.00 | 0.28 | 0.28 | 87 | 1034.1 |
| 20260507005011 | 52 | 77 | 0.0 | 3.0 | 0.00 | 0.28 | 0.28 | 87 | 1034.1 |
| 20260507004510 | 52 | 77 | 0.0 | 3.0 | 0.00 | 0.28 | 0.28 | 87 | 1033.7 |
| 20260507004009 | 52 | 83 | 0.0 | 5.0 | 0.00 | 0.28 | 0.28 | 86 | 1033.7 |
| 20260507003509 | 52 | 83 | 0.0 | 5.0 | 0.00 | 0.28 | 0.28 | 86 | 1033.6 |
| 20260507003007 | 52 | 75 | 0.0 | 3.0 | 0.00 | 0.28 | 0.28 | 86 | 1033.5 |
| 20260507002507 | 52 | 76 | 0.0 | 3.0 | 0.00 | 0.28 | 0.28 | 86 | 1033.4 |
| 20260507002006 | 53 | 83 | 0.0 | 4.0 | 0.00 | 0.28 | 0.28 | 86 | 1033.3 |
| 20260507001512 | 53 | 68 | 1.0 | 4.0 | 0.00 | 0.28 | 0.28 | 86 | 1033.1 |
| 20260507001005 | 53 | 89 | 0.0 | 3.0 | 0.00 | 0.28 | 0.28 | 86 | 1032.9 |
| 20260507000503 | 53 | 89 | 0.0 | 3.0 | 0.00 | 0.28 | 0.28 | 86 | 1032.8 |
| 20260507000008 | 53 | 78 | 0.0 | 3.0 | 0.00 | 0.28 | 0.28 | 86 | 1032.6 |
| 20260506235502 | 53 | 89 | 0.0 | 3.0 | 0.00 | 0.28 | 0.28 | 86 | 1032.6 |
| 20260506235001 | 53 | 86 | 0.0 | 1.0 | 0.00 | 0.28 | 0.28 | 86 | 1032.6 |
| 20260506234603 | 53 | 88 | 0.0 | 1.0 | 0.00 | 0.28 | 0.28 | 86 | 1032.6 |
| 20260506234100 | 53 | 88 | 0.0 | 2.0 | 0.00 | 0.28 | 0.28 | 86 | 1032.3 |
| 20260506233600 | 53 | 80 | 0.0 | 6.0 | 0.00 | 0.28 | 0.28 | 85 | 1032.3 |
| 20260506233104 | 53 | 78 | 2.0 | 6.0 | 0.00 | 0.28 | 0.28 | 85 | 1032.4 |
| 20260506232558 | 54 | 82 | 0.0 | 6.0 | 0.00 | 0.28 | 0.28 | 86 | 1032.2 |
| 20260506232058 | 54 | 83 | 1.0 | 6.0 | 0.00 | 0.28 | 0.28 | 85 | 1032.1 |
| 20260506231556 | 54 | 84 | 1.0 | 9.0 | 0.00 | 0.28 | 0.28 | 85 | 1031.9 |
| 20260506231056 | 54 | 93 | 3.0 | 9.0 | 0.00 | 0.28 | 0.28 | 85 | 1031.6 |
| 20260506230555 | 54 | 84 | 1.0 | 16.0 | 0.00 | 0.28 | 0.28 | 86 | 1031.7 |
| 20260506230055 | 54 | 84 | 3.0 | 16.0 | 0.00 | 0.28 | 0.28 | 86 | 1031.7 |
| 20260506225552 | 55 | 68 | 2.0 | 9.0 | 0.00 | 0.28 | 0.28 | 86 | 1031.7 |
| 20260506225052 | 55 | 89 | 1.0 | 9.0 | 0.00 | 0.28 | 0.28 | 86 | 1031.7 |
| 20260506224602 | 55 | 84 | 2.0 | 9.0 | 0.00 | 0.28 | 0.28 | 86 | 1031.6 |
| 20260506224049 | 55 | 135 | 3.0 | 17.0 | 0.00 | 0.28 | 0.28 | 86 | 1031.4 |
| 20260506223549 | 55 | 98 | 3.0 | 17.0 | 0.00 | 0.28 | 0.28 | 86 | 1031.2 |
| 20260506223047 | 56 | 105 | 3.0 | 12.0 | 0.00 | 0.28 | 0.28 | 86 | 1031.0 |
| 20260506222550 | 56 | 69 | 2.0 | 12.0 | 0.00 | 0.28 | 0.28 | 86 | 1031.0 |
| 20260506222044 | 57 | 80 | 2.0 | 11.0 | 0.00 | 0.28 | 0.28 | 86 | 1030.8 |
| 20260506221544 | 58 | 70 | 2.0 | 12.0 | 0.00 | 0.28 | 0.28 | 86 | 1030.7 |
| 20260506221043 | 59 | 85 | 2.0 | 12.0 | 0.00 | 0.28 | 0.28 | 86 | 1030.5 |
| 20260506220544 | 60 | 41 | 4.0 | 10.0 | 0.00 | 0.28 | 0.28 | 86 | 1030.5 |
| 20260506220044 | 61 | 71 | 3.0 | 15.0 | 0.00 | 0.28 | 0.28 | 86 | 1030.2 |
| 20260506215542 | 63 | 93 | 3.0 | 15.0 | 0.00 | 0.28 | 0.28 | 85 | 1029.9 |
| 20260506215041 | 64 | 143 | 2.0 | 6.0 | 0.00 | 0.28 | 0.28 | 86 | 1029.7 |
| 20260506214556 | 64 | 76 | 1.0 | 5.0 | 0.00 | 0.28 | 0.28 | 87 | 1029.6 |
| 20260506214041 | 64 | 94 | 0.0 | 3.0 | 0.00 | 0.28 | 0.28 | 88 | 1029.5 |
| 20260506213540 | 64 | 92 | 0.0 | 3.0 | 0.00 | 0.28 | 0.28 | 88 | 1029.4 |
| 20260506213044 | 64 | 89 | 0.0 | 2.0 | 0.00 | 0.28 | 0.28 | 88 | 1029.3 |
| 20260506212541 | 64 | 91 | 0.0 | 3.0 | 0.00 | 0.28 | 0.28 | 88 | 1029.2 |
| 20260506212041 | 64 | 208 | 0.0 | 4.0 | 0.00 | 0.28 | 0.28 | 89 | 1029.1 |
| 20260506211540 | 63 | 78 | 0.0 | 4.0 | 0.00 | 0.28 | 0.28 | 89 | 1029.2 |
| 20260506211040 | 63 | 86 | 1.0 | 4.0 | 0.00 | 0.28 | 0.28 | 88 | 1029.2 |
| 20260506210539 | 63 | 86 | 0.0 | 5.0 | 0.00 | 0.28 | 0.28 | 88 | 1029.1 |
| 20260506210041 | 63 | 67 | 1.0 | 5.0 | 0.00 | 0.28 | 0.28 | 88 | 1029.0 |
| 20260506205539 | 63 | 79 | 0.0 | 4.0 | 0.00 | 0.28 | 0.28 | 88 | 1029.0 |
| 20260506205040 | 63 | 79 | 0.0 | 4.0 | 0.00 | 0.28 | 0.28 | 87 | 1028.9 |
| 20260506204539 | 64 | 67 | 0.0 | 6.0 | 0.00 | 0.28 | 0.28 | 87 | 1029.0 |
| 20260506204039 | 64 | 70 | 0.0 | 6.0 | 0.00 | 0.28 | 0.28 | 87 | 1028.8 |
| 20260506203538 | 64 | 81 | 1.0 | 12.0 | 0.00 | 0.28 | 0.28 | 87 | 1028.8 |
| 20260506203041 | 64 | 101 | 0.0 | 12.0 | 0.00 | 0.28 | 0.28 | 87 | 1028.8 |
| 20260506202538 | 64 | 85 | 2.0 | 8.0 | 0.00 | 0.28 | 0.28 | 87 | 1028.7 |
| 20260506202038 | 64 | 89 | 1.0 | 8.0 | 0.00 | 0.28 | 0.28 | 88 | 1028.8 |
| 20260506201539 | 64 | 84 | 0.0 | 8.0 | 0.00 | 0.28 | 0.28 | 89 | 1028.8 |
| 20260506201038 | 63 | 88 | 1.0 | 8.0 | 0.00 | 0.28 | 0.28 | 89 | 1028.8 |
| 20260506200539 | 62 | 79 | 1.0 | 7.0 | 0.00 | 0.28 | 0.28 | 90 | 1028.8 |
| 20260506200037 | 62 | 86 | 1.0 | 7.0 | 0.00 | 0.28 | 0.28 | 89 | 1028.9 |
| 20260506195537 | 62 | 66 | 1.0 | 6.0 | 0.00 | 0.28 | 0.28 | 90 | 1028.8 |
| 20260506195037 | 62 | 79 | 1.0 | 6.0 | 0.00 | 0.28 | 0.28 | 90 | 1028.9 |
| 20260506194548 | 62 | 91 | 1.0 | 6.0 | 0.00 | 0.28 | 0.28 | 90 | 1028.9 |
| 20260506194044 | 62 | 112 | 0.0 | 3.0 | 0.00 | 0.28 | 0.28 | 91 | 1028.8 |
| 20260506193537 | 62 | 80 | 0.0 | 3.0 | 0.00 | 0.28 | 0.28 | 91 | 1029.0 |
| 20260506193036 | 62 | 87 | 0.0 | 5.0 | 0.00 | 0.28 | 0.28 | 91 | 1029.0 |
| 20260506192536 | 62 | 89 | 1.0 | 5.0 | 0.00 | 0.28 | 0.28 | 91 | 1029.0 |
| 20260506192036 | 62 | 80 | 0.0 | 5.0 | 0.00 | 0.28 | 0.28 | 91 | 1029.1 |
| 20260506191536 | 62 | 84 | 0.0 | 5.0 | 0.00 | 0.28 | 0.28 | 92 | 1029.0 |
| 20260506191036 | 62 | 91 | 0.0 | 5.0 | 0.00 | 0.28 | 0.28 | 92 | 1029.1 |
| 20260506190538 | 61 | 88 | 0.0 | 4.0 | 0.00 | 0.28 | 0.28 | 92 | 1029.1 |
| 20260506190039 | 62 | 88 | 0.0 | 4.0 | 0.00 | 0.28 | 0.28 | 92 | 1029.2 |
| 20260506185535 | 61 | 78 | 0.0 | 6.0 | 0.00 | 0.28 | 0.28 | 92 | 1029.0 |
| 20260506185035 | 61 | 105 | 1.0 | 6.0 | 0.01 | 0.28 | 0.28 | 92 | 1029.1 |
| 20260506184534 | 61 | 91 | 1.0 | 6.0 | 0.01 | 0.28 | 0.28 | 92 | 1029.1 |
| 20260506184035 | 61 | 82 | 2.0 | 6.0 | 0.01 | 0.28 | 0.28 | 93 | 1029.0 |
| 20260506183535 | 61 | 97 | 0.0 | 3.0 | 0.01 | 0.28 | 0.28 | 93 | 1029.0 |
| 20260506183034 | 61 | 98 | 1.0 | 3.0 | 0.01 | 0.28 | 0.28 | 93 | 1029.1 |
| 20260506182535 | 61 | 91 | 0.0 | 3.0 | 0.01 | 0.28 | 0.28 | 94 | 1029.1 |
| 20260506182035 | 60 | 111 | 0.0 | 6.0 | 0.01 | 0.28 | 0.28 | 93 | 1029.2 |
| 20260506181536 | 60 | 82 | 1.0 | 6.0 | 0.01 | 0.28 | 0.28 | 93 | 1029.3 |
| 20260506181034 | 60 | 78 | 1.0 | 5.0 | 0.01 | 0.28 | 0.28 | 93 | 1029.3 |
| 20260506180534 | 60 | 78 | 0.0 | 6.0 | 0.01 | 0.28 | 0.28 | 93 | 1029.3 |
| 20260506180039 | 60 | 75 | 1.0 | 6.0 | 0.01 | 0.28 | 0.28 | 94 | 1029.3 |
| 20260506175536 | 60 | 75 | 1.0 | 6.0 | 0.02 | 0.28 | 0.28 | 94 | 1029.3 |
| 20260506175032 | 60 | 86 | 2.0 | 6.0 | 0.01 | 0.28 | 0.28 | 93 | 1029.2 |
| 20260506174535 | 60 | 98 | 1.0 | 5.0 | 0.01 | 0.28 | 0.28 | 93 | 1029.2 |
| 20260506174033 | 60 | 75 | 0.0 | 4.0 | 0.01 | 0.28 | 0.28 | 93 | 1029.3 |
| 20260506173535 | 60 | 99 | 0.0 | 7.0 | 0.01 | 0.28 | 0.28 | 94 | 1029.3 |
| 20260506173032 | 60 | 107 | 1.0 | 7.0 | 0.01 | 0.28 | 0.28 | 94 | 1029.3 |
| 20260506172532 | 60 | 93 | 0.0 | 3.0 | 0.01 | 0.28 | 0.28 | 93 | 1029.2 |
| 20260506172032 | 60 | 136 | 0.0 | 3.0 | 0.01 | 0.28 | 0.28 | 93 | 1029.3 |
| 20260506171548 | 60 | 79 | 0.0 | 4.0 | 0.01 | 0.28 | 0.28 | 93 | 1029.4 |
| 20260506171035 | 60 | 99 | 1.0 | 4.0 | 0.01 | 0.28 | 0.28 | 93 | 1029.4 |
| 20260506170538 | 60 | 77 | 0.0 | 4.0 | 0.01 | 0.28 | 0.28 | 94 | 1029.2 |
| 20260506170037 | 59 | 92 | 0.0 | 4.0 | 0.01 | 0.28 | 0.28 | 93 | 1029.4 |